GFSGBSN_con_sbcape_105.txt.gz
CAPE
3 4 3 5 10 9 7 18 0 0 0 0 0 0 0 0 0 0 0 0 0 0 0 0 0 0 0 0 0 0 0 0 0 0 0 0 0 0 0 0 0 0 0 0 0 0 0
13 13 13 9 5 6 9 6 20 7 0 0 0 0 0 0 0 0 0 0 0 0 0 0 0 1 0 0 0 0 0 0 0 0 0 0 0 0 0 0 0 0 0 0 0 0 0
10 16 16 11 7 4 5 3 0 4 13 2 0 0 0 0 0 0 0 0 0 0 0 0 0 2 1 0 0 0 0 0 0 0 0 0 0 0 0 0 0 0 0 0 0 0 0
9 8 9 12 9 6 4 3 3 1 6 15 2 0 0 0 0 0 0 2 0 0 0 0 0 3 0 0 0 0 0 0 0 0 0 0 0 0 0 0 0 0 0 0 0 0 0
8 16 14 19 17 12 5 4 6 10 12 17 14 1 0 0 0 0 0 0 0 0 0 0 1 2 0 0 0 0 0 0 0 0 0 0 0 0 0 0 0 0 0 0 0 0 0
13 16 10 5 5 7 7 5 3 6 7 13 20 11 1 1 2 1 0 0 0 0 0 0 2 0 0 0 0 0 0 0 0 0 0 0 0 0 0 0 0 0 0 0 0 0 0
25 20 7 13 16 9 9 13 17 3 3 5 35 16 0 2 4 0 0 0 1 0 5 0 0 0 0 0 0 0 0 0 0 0 0 0 0 0 0 0 0 0 0 0 0 0 0
48 37 39 40 21 6 2 2 2 13 2 9 39 11 0 4 3 0 0 0 0 0 0 0 0 0 0 0 0 0 0 0 0 0 0 0 0 0 0 0 0 0 0 0 0 0 0
71 64 46 31 13 1 0 0 0 12 4 13 24 8 4 8 3 0 0 0 0 0 0 0 0 0 0 0 0 0 0 0 0 0 0 0 0 0 0 0 0 0 0 0 0 0 0
66 53 27 12 7 0 0 2 2 10 6 18 16 0 4 8 0 0 0 0 0 0 0 0 0 0 0 0 0 0 0 0 0 0 0 0 0 0 0 0 0 0 0 0 0 0 0
41 45 36 25 3 4 4 1 2 13 13 19 0 4 5 0 0 0 0 0 0 0 0 0 0 0 0 0 0 0 0 0 0 0 0 0 0 0 0 0 0 0 0 0 0 0 0
39 22 29 18 2 0 3 0 3 10 9 1 0 8 1 0 0 0 0 16 0 1 0 0 0 0 0 0 0 0 0 0 0 0 0 0 0 0 0 0 0 0 0 0 0 0 0
47 14 28 16 0 0 2 0 1 9 1 2 6 6 0 0 0 0 0 4 1 0 0 0 0 0 0 0 0 0 0 0 0 0 0 0 0 0 0 0 0 0 0 0 0 0 0
41 18 0 7 3 1 0 0 0 0 1 6 14 2 0 1 0 0 0 5 0 0 0 0 0 0 0 0 0 0 0 0 0 0 0 0 0 0 0 0 0 0 0 0 0 0 0
37 41 0 0 8 1 6 4 0 1 7 17 3 0 0 0 0 0 0 1 0 0 0 0 0 0 0 0 0 0 0 0 0 0 0 0 0 0 0 0 0 0 0 0 0 0 0
39 53 11 0 0 11 4 5 9 14 15 4 0 6 3 0 0 8 5 1 0 0 0 0 0 0 0 0 0 0 0 0 0 0 0 0 0 0 0 0 0 0 0 0 0 0 0
23 40 42 5 0 1 7 13 14 20 10 0 0 3 1 1 3 7 4 0 0 0 0 0 0 0 0 0 0 0 0 0 0 0 0 0 0 0 0 0 0 0 0 0 0 0 0
34 17 27 43 18 8 5 6 5 3 1 0 5 0 7 13 12 25 3 0 0 0 0 0 0 0 0 0 0 0 0 0 0 0 0 0 0 0 0 0 0 0 0 0 0 0 0
36 22 32 38 36 25 17 13 9 7 0 4 1 3 23 3 4 7 4 0 0 0 0 0 0 0 0 0 0 0 0 0 0 0 0 0 0 0 0 0 0 0 0 0 0 0 1
48 33 25 28 37 41 34 21 15 6 1 0 0 1 7 9 8 0 0 0 0 0 0 0 0 0 0 0 0 0 0 0 0 0 0 0 0 0 0 0 0 0 0 0 0 0 0
23 21 15 11 39 34 41 34 14 24 1 0 0 0 0 4 7 0 0 0 0 0 0 0 0 0 0 0 0 0 0 0 0 0 0 0 0 0 0 0 0 0 0 0 0 0 5
20 3 16 10 20 15 25 29 20 13 1 0 0 0 0 0 0 0 0 0 0 0 0 0 0 0 0 0 0 0 0 0 0 0 0 0 0 0 0 0 0 0 0 0 0 0 0
17 6 18 17 24 22 32 35 21 17 1 0 0 0 0 0 0 0 0 0 0 0 0 0 0 0 0 0 0 0 0 0 0 0 0 0 0 0 0 0 0 0 0 0 0 4 1
40 22 29 17 22 42 29 20 22 6 0 0 0 0 0 0 0 0 0 0 0 0 0 0 0 0 0 0 0 0 0 0 0 0 0 0 0 0 0 0 0 0 16 6 10 3 2
47 51 54 28 22 38 8 28 81 3 3 0 0 0 0 0 0 0 0 0 0 0 0 0 0 0 0 0 0 0 0 0 0 0 0 0 0 0 0 0 0 0 1 9 6 2 5
46 31 37 41 38 43 47 67 39 0 0 0 0 0 0 0 0 0 0 0 0 0 0 0 0 0 0 0 0 0 0 0 0 1 0 0 0 1 0 0 0 2 1 4 16 11 4
50 46 35 35 31 39 54 59 31 2 0 0 0 0 0 0 0 0 0 0 0 0 0 0 0 0 0 0 0 0 0 0 3 14 3 8 10 4 2 2 0 3 3 9 14 2 4
38 67 50 18 24 17 21 15 5 0 0 0 0 0 0 0 0 0 0 0 0 0 0 0 0 0 0 0 0 0 1 4 1 10 2 1 3 5 6 3 0 2 0 2 5 5 5
16 59 44 10 0 7 11 2 0 0 0 0 0 0 0 0 0 0 0 0 0 0 0 0 0 0 0 0 0 2 1 2 1 1 3 1 9 6 6 3 6 8 8 7 5 5 8

GFSGBSN_con_sbcape_108.txt.gz
CAPE
4 4 3 0 2 1 0 2 4 0 3 0 0 0 0 0 0 0 0 0 0 0 0 0 0 0 0 0 0 0 0 0 0 0 0 0 0 0 0 0 0 0 0 0 0 0 0
14 14 10 2 1 1 1 2 1 0 0 7 0 0 0 0 0 0 0 0 0 0 0 0 0 0 0 0 0 0 0 0 0 0 0 0 0 0 0 0 0 0 0 0 0 0 0
9 13 9 9 8 11 7 6 4 3 3 0 10 4 0 1 0 0 0 0 0 0 0 0 0 0 0 0 0 0 0 0 0 0 0 0 0 0 0 0 0 0 0 0 0 0 0
11 12 9 16 15 13 13 13 13 10 8 7 6 11 8 0 0 0 1 0 0 0 0 0 0 0 0 0 0 0 0 0 0 0 0 0 0 0 0 0 0 0 0 0 0 0 0
9 9 9 24 9 3 2 5 6 5 6 10 9 9 15 0 0 0 2 0 0 0 0 0 0 0 0 0 0 0 0 0 0 0 0 0 0 0 0 0 0 0 0 0 0 0 0
9 6 8 27 21 8 12 9 5 1 0 4 2 10 12 4 0 1 1 0 0 0 0 0 1 0 0 0 0 0 0 0 0 0 0 0 0 0 0 0 0 0 0 0 0 0 0
8 7 12 29 27 28 17 21 5 0 0 0 7 2 9 1 1 2 0 0 0 4 3 0 0 0 0 0 0 0 0 0 0 0 0 0 0 0 0 0 0 0 0 0 0 0 0
20 18 23 21 28 30 16 14 1 0 0 0 0 6 0 9 1 0 0 0 0 0 0 0 0 0 0 0 0 0 0 0 0 0 0 0 0 0 0 0 0 0 0 0 0 0 0
52 36 21 10 3 19 18 4 0 0 0 1 4 6 18 0 5 0 0 0 0 0 0 0 0 0 0 0 0 0 0 0 0 0 0 0 0 0 0 0 0 0 0 0 0 0 0
58 53 49 16 5 11 13 0 3 4 5 2 2 5 0 4 0 0 0 0 0 0 1 0 0 0 0 0 0 0 0 0 0 0 0 0 0 0 0 0 0 0 0 0 0 0 0
59 63 62 20 23 29 3 0 5 7 1 2 0 9 2 0 0 0 0 0 0 0 10 0 0 0 0 0 0 0 0 0 0 0 0 0 0 0 0 0 0 0 0 0 0 0 0
59 56 62 23 40 31 1 6 2 4 0 0 3 0 1 0 0 0 0 0 0 2 4 0 0 0 0 0 0 0 0 0 0 0 0 0 0 0 0 0 0 0 0 0 0 0 0
61 64 56 14 15 10 0 3 0 0 0 0 0 8 0 0 0 0 0 0 1 7 0 0 0 0 0 0 0 0 0 0 0 1 2 2 5 0 0 0 0 0 3 15 11 5 0
63 62 64 14 3 10 0 0 0 0 0 0 3 4 0 0 0 0 0 2 5 0 1 0 0 0 0 0 0 0 0 0 0 1 2 11 11 0 0 0 1 0 24 27 6 9 9
67 69 62 15 1 10 1 0 0 0 0 4 2 3 5 3 0 0 0 3 2 2 0 0 0 0 0 0 0 0 0 0 3 7 11 11 0 0 0 0 0 0 6 0 14 12 5
48 69 65 24 0 0 2 0 0 0 5 2 0 0 6 1 3 0 3 5 1 0 0 0 0 0 1 0 0 0 12 3 0 0 5 0 0 0 0 0 0 0 0 7 21 1 0
81 76 72 42 0 0 3 3 1 6 7 0 0 1 1 1 1 2 3 0 0 0 0 0 0 0 0 0 0 0 3 0 0 0 0 0 3 0 0 0 11 0 0 0 1 1 0
109 72 73 67 19 0 1 3 17 17 4 0 2 3 15 16 8 20 10 4 0 0 0 0 0 0 0 0 0 0 0 0 0 0 0 0 0 3 0 0 0 0 0 0 0 0 0
153 83 40 56 54 12 5 2 6 14 0 1 1 4 4 18 22 25 17 2 0 0 0 0 0 0 0 0 2 0 0 0 0 0 0 0 0 0 0 0 0 0 0 0 0 0 0
7 122 62 40 47 53 31 16 13 2 0 16 10 13 2 7 6 13 9 7 1 0 0 0 0 0 1 0 0 1 0 0 0 0 0 0 0 0 0 0 0 0 0 0 0 1 0
0 69 64 44 28 52 44 32 30 23 1 11 17 33 6 26 42 17 9 11 1 0 0 0 0 0 0 0 0 0 0 0 0 0 0 0 0 0 0 0 0 0 0 0 0 0 1
0 22 33 0 14 32 48 29 37 45 3 9 24 7 1 13 18 15 10 8 0 0 0 0 0 0 0 0 0 0 0 0 0 0 0 0 0 0 0 0 0 0 0 0 0 0 0
65 53 16 18 13 8 19 35 35 22 2 8 0 0 0 12 23 23 17 0 1 0 0 0 0 0 0 0 0 0 0 0 0 0 0 2 3 0 0 0 0 0 0 0 0 1 0
42 29 10 15 43 36 28 29 31 18 5 4 0 0 18 39 43 15 0 0 0 0 0 0 0 0 0 0 0 0 0 0 0 0 1 5 12 4 1 0 0 4 9 10 12 17 10
44 21 15 32 21 23 19 12 1 10 1 8 0 0 8 26 9 0 0 0 0 0 0 0 0 0 0 0 0 0 0 0 1 0 0 2 11 20 11 13 0 0 13 8 14 19 7
51 22 24 21 20 9 11 9 18 4 2 13 4 0 5 25 1 0 0 0 0 0 0 0 0 0 0 0 0 0 0 3 14 7 1 1 15 29 26 14 3 9 4 8 19 19 7
35 40 19 16 25 43 70 66 58 28 8 1 0 0 0 0 0 0 0 0 0 0 0 0 0 0 0 0 4 13 13 7 20 34 4 17 22 22 19 21 14 5 6 8 17 11 9
14 43 35 8 9 43 41 46 26 7 2 1 0 0 0 1 0 0 0 0 0 0 0 0 0 0 0 3 12 12 14 9 16 12 24 13 17 19 24 25 17 4 3 8 12 11 12
7 6 51 47 41 51 57 48 0 0 0 0 0 0 0 0 0 0 0 0 0 0 0 0 0 0 0 9 3 12 22 20 8 47 14 34 19 45 20 18 13 14 15 18 15 13 13

GFSGBSN_con_sbcape_114.txt.gz
CAPE
5 5 5 1 0 0 0 0 2 0 0 0 0 0 2 11 20 9 0 0 0 0 0 0 0 0 0 0 0 0 0 0 0 0 0 0 0 0 0 0 0 0 0 0 0 0 0
11 11 9 5 0 0 0 0 5 5 5 5 2 1 0 2 13 19 9 0 0 0 0 0 0 0 0 0 0 0 0 0 0 0 0 0 0 0 0 0 0 0 0 0 0 0 0
4 6 6 8 2 0 6 4 3 5 1 0 0 3 0 0 4 9 19 0 0 0 0 0 0 0 0 0 0 0 0 0 0 0 0 0 0 0 0 0 0 0 0 0 0 0 0
9 2 5 15 15 9 15 1 0 0 0 0 0 0 0 0 2 3 10 0 0 0 0 0 0 0 0 0 0 0 0 0 0 0 0 0 0 0 0 0 0 0 0 0 0 0 0
8 4 1 9 15 9 11 14 7 10 14 8 2 0 0 0 0 2 9 0 1 0 0 0 0 0 0 0 0 0 0 0 0 0 0 0 0 0 0 0 0 0 0 0 0 0 0
10 7 3 17 17 20 21 23 24 18 9 5 0 0 0 0 0 4 1 1 0 0 0 0 0 0 0 0 0 0 0 0 0 0 0 0 0 0 0 0 0 0 0 0 0 0 2
11 10 7 3 21 17 18 17 15 11 3 0 0 0 0 0 1 0 0 0 0 0 0 0 0 0 0 0 0 0 0 0 0 0 0 0 0 0 0 0 0 0 0 0 0 0 0
40 18 14 4 8 14 6 9 5 0 0 0 0 0 0 2 9 0 0 1 8 11 5 0 0 0 0 0 0 0 4 0 0 0 0 0 0 0 0 0 0 1 1 1 4 0 0
40 35 23 13 8 13 8 6 2 0 0 0 0 0 5 8 9 1 4 2 10 0 19 0 0 0 0 0 0 0 0 0 5 4 3 13 0 0 1 1 8 9 16 26 11 0 3
46 50 32 1 10 17 31 19 0 0 0 0 0 0 2 7 14 5 15 25 0 29 11 0 0 0 0 0 0 0 0 0 1 3 9 3 0 0 19 16 26 35 15 44 23 29 45
41 40 41 42 40 32 21 20 0 0 0 0 0 0 5 23 20 6 1 0 0 43 7 0 0 0 0 0 0 0 0 0 0 0 20 0 9 8 54 41 53 51 51 34 1 0 13
63 50 42 42 39 32 20 18 0 0 0 0 0 0 1 7 14 1 0 0 14 34 4 0 0 0 0 0 0 0 0 0 0 0 0 12 13 36 21 71 73 0 0 22 83 8 8
58 57 58 45 31 28 29 21 1 0 0 0 0 1 11 13 6 0 0 0 25 39 0 0 0 0 0 0 0 0 0 0 0 8 41 48 13 11 52 40 0 0 0 0 26 3 1
49 55 58 54 43 34 35 37 9 0 0 0 0 0 5 2 0 0 0 14 80 0 0 0 0 1 6 3 5 13 0 0 0 6 43 49 40 42 35 1 0 5 5 6 0 7 12
42 34 51 61 54 54 46 40 6 0 0 0 1 6 5 0 0 0 0 20 11 0 0 0 2 18 0 4 1 9 5 0 0 8 0 59 11 1 0 21 0 0 15 27 15 0 23
59 46 60 60 63 59 53 45 0 0 0 0 18 1 2 0 0 0 8 15 0 0 0 1 69 100 38 24 56 42 2 0 0 7 28 15 15 2 13 0 0 0 0 13 14 57 23
72 64 71 71 70 64 53 56 1 0 0 3 0 0 1 0 3 1 2 26 4 0 0 62 85 89 127 84 41 148 13 3 0 4 0 7 7 6 1 0 0 0 0 0 0 0 13
108 91 79 78 73 58 60 75 2 8 0 0 0 0 4 5 0 1 1 10 5 9 33 64 22 23 93 87 5 37 81 5 0 0 0 0 2 4 0 0 0 0 6 4 28 2 5
145 128 132 106 102 95 80 94 22 0 2 0 1 2 1 0 0 9 1 21 12 12 23 21 1 0 0 0 1 2 0 0 0 0 1 0 0 1 2 1 0 0 0 0 22 48 9
163 154 119 98 102 124 109 87 54 0 1 4 3 1 3 1 5 2 9 17 16 4 12 0 0 3 0 0 0 0 0 0 0 0 0 2 1 0 8 0 0 0 0 0 8 42 0
203 152 139 130 112 119 105 131 80 18 3 25 14 9 1 1 2 21 21 4 19 22 0 2 1 1 1 0 6 0 0 0 0 0 0 0 0 4 0 0 0 0 0 0 0 5 21
175 204 143 137 151 120 85 95 106 52 2 15 1 25 19 13 7 9 30 43 23 11 0 3 0 1 0 0 2 3 1 5 0 0 0 6 6 0 0 0 0 0 0 0 0 0 0
120 160 145 121 136 135 80 75 78 45 3 10 16 14 25 5 7 23 21 16 21 4 1 0 0 1 0 1 1 1 15 19 7 22 28 15 0 0 0 0 0 0 0 0 0 0 0
109 112 114 92 96 107 85 85 142 19 0 25 47 53 41 38 19 39 17 7 31 12 0 1 6 10 0 0 0 0 0 0 0 0 15 2 13 9 11 0 0 0 0 0 0 0 0
15 12 50 135 170 90 136 0 161 23 2 11 13 28 49 144 0 4 6 17 22 20 3 0 0 0 0 0 0 0 0 0 0 0 0 6 9 18 7 3 0 0 0 0 0 0 0
29 118 120 136 132 71 18 47 67 22 11 21 10 31 20 65 20 2 42 48 31 28 1 0 0 0 0 1 0 0 0 0 0 0 0 0 0 24 10 9 8 4 0 1 3 0 1
27 53 37 76 69 41 48 41 51 32 23 16 25 28 7 17 31 31 37 44 24 9 0 0 0 0 0 1 1 0 0 0 2 0 1 7 15 8 27 31 22 1 1 3 5 0 1
30 27 23 38 39 26 30 51 50 21 10 10 69 0 20 43 5 15 3 66 41 19 0 0 0 0 0 13 5 12 31 0 34 23 4 5 14 21 32 33 27 0 3 3 7 4 5
14 46 32 22 43 44 14 2 14 13 10 3 27 16 9 28 8 0 0 0 0 0 2 0 1 0 19 21 33 31 17 43 33 6 0 22 14 24 5 8 1 2 1 11 11 8 9

GFSGBSN_con_sbcape_117.txt.gz
CAPE
0 0 0 0 0 0 0 0 0 0 0 0 0 0 0 0 0 0 2 3 0 0 0 0 0 0 0 0 0 0 0 0 0 0 0 0 0 0 0 0 0 0 0 0 0 0 0
4 8 5 0 0 0 0 0 0 0 0 0 0 0 0 0 0 0 0 2 7 0 0 0 0 0 0 0 0 0 0 0 0 0 0 0 0 0 0 0 0 0 0 0 0 0 0
0 1 2 4 2 0 0 7 0 0 0 0 0 0 0 0 0 1 0 0 0 0 0 0 0 0 0 0 0 0 0 0 0 0 0 0 0 0 0 0 0 0 0 0 0 0 0
0 1 0 5 7 6 7 12 1 0 0 4 5 0 0 0 0 0 0 0 2 0 0 0 0 0 0 0 0 0 0 0 0 0 0 0 0 0 0 0 0 0 0 0 0 0 0
11 8 6 5 8 9 12 10 18 10 19 15 6 0 0 0 0 0 0 12 0 0 0 0 0 0 0 0 0 0 0 0 0 0 0 0 0 0 0 0 0 0 0 0 0 0 0
13 13 12 16 20 18 21 19 18 24 11 6 0 0 0 0 0 2 0 0 1 0 0 0 0 0 0 0 0 0 0 0 0 0 0 0 0 0 0 0 0 0 0 0 0 0 0
24 16 16 26 22 20 21 29 23 11 3 0 8 0 0 0 14 0 0 0 0 0 0 0 0 0 0 0 0 0 0 0 0 0 0 0 0 0 0 0 0 0 0 0 0 0 0
50 56 31 22 17 6 13 17 16 14 7 9 15 10 8 4 18 1 0 8 0 1 1 0 0 0 0 0 0 0 0 0 0 0 0 0 0 0 0 0 0 0 0 0 0 0 0
55 38 36 41 27 15 13 24 24 15 3 6 12 16 3 1 12 6 18 7 7 0 0 0 0 0 0 0 0 0 0 0 0 0 0 0 0 0 0 0 0 0 1 0 0 1 0
50 55 51 39 29 26 35 38 41 34 8 0 0 0 0 3 4 10 16 6 3 1 0 0 0 0 0 0 0 0 0 0 0 0 0 0 0 0 0 0 0 0 1 40 18 1 0
68 67 61 60 58 39 40 35 40 40 24 0 0 0 0 26 23 9 2 6 0 1 0 0 0 0 0 0 0 0 0 0 0 0 0 0 0 0 10 1 0 1 27 0 0 0 2
68 66 60 54 53 51 50 46 37 38 33 1 0 0 13 3 15 23 13 0 0 1 0 0 0 0 0 0 0 0 0 0 0 0 0 0 0 0 0 0 1 11 1 0 0 0 3
68 71 70 69 58 53 53 41 32 42 34 1 0 0 23 17 20 5 0 7 5 1 0 0 0 0 0 0 0 0 0 0 0 0 0 0 0 0 5 11 0 0 0 0 0 0 0
72 65 58 59 68 46 44 37 39 45 30 0 0 4 0 5 7 0 21 37 13 0 0 0 0 0 0 0 0 0 0 0 0 0 0 0 0 0 0 0 1 0 0 0 0 0 0
60 83 72 62 64 58 52 51 44 54 31 0 4 0 20 5 2 0 54 25 0 0 0 0 0 0 0 0 6 0 0 0 0 0 0 0 0 0 0 0 0 0 0 0 1 0 0
64 71 73 63 60 65 59 51 50 46 29 3 8 7 1 0 0 5 23 10 0 0 0 0 0 0 0 0 0 0 0 0 0 0 0 0 2 0 0 0 0 0 0 0 0 1 4
70 87 100 90 69 70 55 56 51 51 33 23 7 26 0 0 0 40 32 0 0 0 0 1 0 0 29 0 32 0 1 0 0 0 0 0 0 0 0 0 0 0 0 0 10 0 1
112 100 115 110 84 73 83 77 65 68 29 17 6 12 0 0 0 0 0 0 0 0 0 0 11 1 25 6 8 1 0 1 0 0 0 0 0 0 0 0 0 0 0 0 0 0 0
120 106 127 141 112 93 85 93 89 90 8 0 0 0 0 1 8 0 0 1 5 0 1 4 40 20 30 0 0 0 0 0 0 0 0 0 0 0 0 0 0 0 0 0 0 0 0
147 124 123 109 105 133 116 117 114 114 6 0 3 0 0 1 1 1 1 1 9 8 0 3 56 0 0 0 0 0 0 0 0 0 0 0 0 0 0 0 0 0 0 0 0 0 0
124 137 159 136 117 116 127 135 114 151 35 18 9 0 0 0 0 9 8 1 5 12 27 5 20 0 0 0 0 0 0 0 0 0 0 0 0 0 0 0 0 0 0 0 0 0 0
111 143 143 107 97 93 92 112 120 136 125 3 0 3 6 0 0 2 11 16 3 1 43 14 0 0 0 0 0 0 0 0 0 0 0 0 0 0 0 0 0 0 0 0 0 0 0
125 119 144 138 114 126 135 154 163 132 126 4 6 6 26 0 0 1 0 2 2 23 25 11 0 0 0 0 0 0 0 0 0 0 0 0 0 0 0 0 0 0 0 0 0 0 0
120 122 136 135 132 134 166 175 173 177 122 1 22 10 11 0 4 0 0 1 5 24 8 0 4 0 0 0 0 0 0 0 0 1 0 0 0 0 0 0 0 0 0 0 0 0 0
104 113 120 123 138 178 189 205 215 162 7 26 29 25 9 1 0 4 4 7 6 55 4 2 0 0 0 0 0 0 0 0 0 0 0 0 0 0 0 0 0 0 0 0 0 0 0
108 80 88 116 120 129 167 180 208 113 0 24 0 0 8 23 4 0 10 19 2 1 1 0 0 0 0 0 0 0 0 0 0 0 0 0 0 0 0 0 0 0 0 0 0 0 0
79 27 41 50 88 190 183 161 149 39 45 1 5 0 20 1 5 0 0 1 10 1 0 0 0 0 0 0 0 0 0 0 0 0 0 0 0 0 0 0 0 0 0 0 0 0 1
62 66 28 119 68 152 135 86 61 87 56 3 0 0 6 2 2 17 25 3 12 0 0 0 0 0 0 0 0 0 0 0 0 0 0 0 0 0 0 5 1 0 0 0 1 0 0
33 29 12 1 49 80 78 70 61 56 52 3 13 1 0 16 8 0 0 0 0 0 0 0 0 0 0 0 0 0 0 0 0 0 0 0 0 0 0 0 0 1 0 2 1 0 2

GFSGBSN_con_sbcape_120.txt.gz
CAPE
0 0 0 2 0 0 0 0 0 0 0 0 0 0 0 0 0 0 0 0 0 1 0 0 0 0 0 0 0 0 0 0 0 0 0 0 0 0 0 0 0 0 0 0 0 0 0
1 1 1 6 0 0 0 3 0 0 0 0 0 0 0 0 0 0 0 0 0 0 0 1 0 0 0 0 0 0 0 0 0 0 0 0 0 0 0 0 0 0 0 0 0 0 0
0 0 0 2 5 0 0 3 0 0 0 0 0 0 0 0 0 0 0 0 0 0 0 0 0 0 0 0 0 0 0 0 0 0 0 0 0 0 0 0 0 0 0 0 0 0 0
0 0 0 0 0 0 0 0 8 0 0 5 9 0 0 0 0 0 0 0 0 4 0 0 0 0 0 0 0 0 0 0 0 0 0 0 0 0 0 0 0 0 0 0 0 0 0
1 4 4 3 0 0 2 4 3 13 11 11 0 0 0 0 0 0 0 0 4 5 0 0 0 0 0 0 0 0 0 0 0 0 0 0 0 0 0 0 0 0 0 0 0 0 0
11 12 9 16 8 7 8 11 9 13 9 3 0 0 0 2 1 0 0 0 1 0 0 0 0 0 0 0 0 0 0 0 0 0 0 0 0 0 0 0 0 0 0 0 0 0 0
26 22 16 26 28 1 5 14 17 11 4 0 0 0 0 7 4 1 0 0 0 0 0 0 0 0 0 0 0 0 0 0 0 0 0 0 0 0 0 0 0 0 0 0 0 0 0
83 42 48 26 26 13 0 8 16 7 4 0 0 11 11 11 5 4 1 0 0 1 1 0 0 0 0 0 0 0 0 0 0 0 0 0 0 0 0 0 0 0 0 0 0 0 0
56 50 67 56 39 33 15 17 27 16 14 0 3 10 9 14 16 18 9 0 0 0 0 0 0 0 0 0 0 0 0 0 0 0 0 0 0 0 0 0 0 0 0 0 0 0 0
63 66 73 74 63 50 39 42 45 40 35 11 1 3 0 6 1 2 3 0 0 0 0 0 0 0 0 0 0 0 0 0 0 0 0 0 0 0 0 0 0 0 0 0 0 0 0
78 71 74 77 63 65 49 54 61 61 58 38 5 0 13 26 1 3 0 0 0 0 0 0 0 0 0 0 0 0 0 0 0 0 0 0 0 0 0 0 0 0 0 8 0 0 0
87 86 91 79 75 73 74 69 64 58 63 56 31 14 25 0 0 0 0 0 0 0 0 0 0 0 0 0 0 0 0 0 0 0 0 0 0 0 0 0 0 0 0 0 0 0 0
86 88 91 88 77 79 76 77 66 61 59 56 41 38 21 4 5 0 0 2 0 0 0 0 0 0 0 0 0 0 0 0 0 0 0 0 0 0 0 0 0 0 0 0 0 0 0
97 90 80 74 90 78 88 70 59 64 57 60 37 27 0 0 0 0 1 17 0 0 0 0 0 0 0 0 0 0 0 0 0 0 0 0 0 0 0 0 0 0 3 0 0 0 0
120 96 88 83 76 89 74 81 69 60 57 63 29 0 0 0 0 0 33 12 0 0 0 0 0 0 0 0 0 0 0 0 0 0 0 0 0 0 0 0 0 0 0 0 0 0 0
105 85 85 86 97 97 92 80 96 83 72 47 1 0 0 6 0 3 40 0 0 0 0 0 0 0 0 0 0 0 0 0 0 0 0 0 0 0 0 0 0 0 0 0 0 0 0
139 89 84 103 120 107 90 91 85 81 80 76 18 2 0 0 4 51 20 0 0 0 0 0 0 0 0 0 0 0 0 0 0 0 0 0 0 0 0 0 0 0 0 0 0 0 0
88 95 87 94 110 115 107 99 120 91 107 52 21 13 0 5 14 3 17 0 0 0 0 0 0 0 0 0 0 0 4 0 0 0 0 0 0 0 0 0 0 0 0 0 0 0 0
120 117 97 92 103 137 141 154 171 168 126 7 2 2 0 0 20 6 1 0 0 0 15 9 2 0 0 0 7 0 2 0 0 0 0 0 0 0 0 0 0 0 0 0 0 0 0
100 129 117 103 125 161 142 139 143 184 195 24 0 5 0 1 1 8 0 1 10 2 8 2 0 1 13 0 0 0 0 0 0 0 0 0 0 0 0 0 0 0 0 0 0 0 0
112 121 120 130 155 164 158 149 137 155 165 14 18 2 0 0 3 1 26 10 2 2 11 26 1 0 7 1 0 0 0 0 0 0 0 0 0 0 0 0 0 0 0 0 0 0 0
117 117 132 116 140 124 124 138 141 171 190 70 12 19 6 0 0 7 16 15 4 0 18 17 3 0 10 0 0 0 0 0 0 0 0 0 0 0 0 0 0 0 0 0 0 0 0
122 117 118 121 119 114 123 167 190 163 172 39 11 51 61 3 0 5 1 1 4 34 25 0 0 15 0 0 0 0 0 0 0 0 0 0 0 0 0 0 0 0 0 0 0 0 0
122 129 128 131 131 137 141 184 211 235 169 17 44 51 31 13 1 0 0 2 2 0 4 57 36 18 0 0 0 0 0 0 0 0 0 0 0 0 0 0 0 0 0 0 0 0 0
123 118 125 130 137 161 185 196 227 231 263 21 38 75 22 16 11 0 0 0 0 0 5 25 3 6 0 0 1 0 0 0 0 0 0 0 0 0 0 0 0 0 0 0 0 0 0
114 125 141 133 195 195 215 243 249 238 273 63 29 17 12 100 0 13 6 0 0 0 1 0 0 0 0 0 0 0 0 0 0 0 0 0 0 0 0 0 0 0 0 0 0 0 0
171 163 169 183 190 186 193 221 201 198 178 76 21 1 39 4 4 34 6 0 9 1 0 1 0 1 0 0 0 0 0 0 0 0 0 0 0 0 0 0 0 0 0 0 0 0 0
98 94 97 126 155 171 173 158 150 175 162 43 2 10 20 2 1 1 4 0 9 0 0 0 0 0 0 0 0 0 0 0 0 0 0 0 0 0 0 0 0 0 0 0 0 0 0
92 75 40 19 23 74 149 118 149 165 148 62 36 25 9 5 1 5 0 0 0 0 0 0 0 0 0 0 0 0 6 0 0 0 0 0 0 0 0 0 0 0 0 0 0 0 1

GFSGBSN_con_sbcape_123.txt.gz
CAPE
7 2 1 0 0 0 0 0 0 0 0 0 0 0 0 0 0 0 0 0 0 0 0 0 0 0 0 0 0 0 0 0 0 0 0 0 0 0 0 0 0 0 0 0 0 0 0
14 5 3 11 0 0 0 0 0 0 0 0 0 0 0 0 0 0 0 0 0 0 0 0 0 0 0 0 0 0 0 0 0 0 0 0 0 0 0 0 0 0 0 0 0 0 0
8 8 10 20 15 1 0 0 0 0 0 0 0 0 0 0 0 0 0 0 0 0 1 0 0 0 0 0 0 0 0 0 0 0 0 0 0 0 0 0 0 0 0 0 0 0 0
6 3 3 13 9 2 0 0 5 2 0 6 0 0 0 0 0 0 0 0 0 1 2 0 0 0 0 0 0 0 0 0 0 0 0 0 0 0 0 0 0 0 0 0 0 0 0
10 3 8 12 0 0 0 0 2 15 14 12 0 0 0 0 0 0 0 0 0 5 0 0 0 0 0 0 0 0 0 0 0 0 0 0 0 0 0 0 0 0 0 0 0 0 0
24 20 16 12 18 16 16 12 11 13 16 2 0 0 0 0 0 0 0 0 0 0 0 0 0 0 0 0 0 0 0 0 0 0 0 0 0 0 0 0 0 0 0 0 0 0 0
40 30 21 26 25 7 3 6 10 16 12 1 0 0 0 0 0 0 0 0 0 0 0 0 0 0 0 0 0 0 0 0 0 0 0 0 0 0 0 0 0 0 0 0 0 0 0
75 74 48 48 42 24 7 7 18 15 13 0 0 0 0 0 1 3 0 0 0 0 1 0 0 0 0 0 0 0 0 0 0 0 0 0 0 0 0 0 0 0 0 0 0 0 0
70 82 59 71 58 50 31 22 23 17 20 3 0 0 0 0 2 6 0 0 0 1 0 0 0 0 0 0 0 0 0 0 0 0 0 0 0 0 0 0 0 0 0 0 0 0 0
68 63 60 55 107 85 73 52 53 48 27 18 0 0 0 0 0 0 0 0 0 1 1 0 0 0 0 0 0 0 0 0 0 0 0 0 0 0 0 0 0 0 0 0 0 0 0
86 77 76 90 107 80 68 58 71 64 48 50 19 3 0 6 0 0 0 0 0 0 0 0 0 0 0 0 0 0 0 0 0 0 0 0 0 0 0 0 0 0 0 0 0 0 0
86 83 84 85 98 87 87 76 64 73 69 59 43 30 6 0 0 0 0 0 0 0 0 0 0 0 0 0 0 0 0 0 0 0 0 0 0 0 0 0 0 0 0 0 0 0 0
74 79 78 72 71 89 81 93 93 73 62 64 55 50 13 0 0 0 0 0 0 0 0 0 0 0 0 0 0 0 0 0 0 0 0 0 0 0 0 0 0 0 0 4 0 0 0
112 87 93 80 82 73 78 88 78 61 72 60 55 42 2 0 0 0 1 8 0 0 0 0 0 0 0 0 0 0 0 0 0 0 0 0 0 0 0 0 0 0 0 1 0 0 0
107 102 110 97 94 95 72 81 81 59 54 70 40 0 0 0 0 0 27 13 0 0 0 0 0 0 0 0 0 0 0 0 0 0 0 0 0 0 0 0 0 0 0 0 0 0 0
106 127 110 109 94 118 101 92 79 79 68 53 0 0 0 0 0 3 25 0 0 0 0 0 0 0 0 0 0 0 0 0 0 0 0 0 0 0 0 0 0 0 0 0 0 0 0
143 136 160 153 123 116 86 93 102 87 83 38 0 0 0 0 10 45 3 0 0 0 0 0 0 0 0 0 0 0 0 0 0 0 0 0 0 0 0 0 0 0 0 0 0 0 0
157 148 139 140 141 109 110 105 108 100 102 7 0 3 0 10 31 19 9 0 0 0 0 0 0 0 0 0 0 0 0 7 0 0 0 0 0 0 0 0 0 0 0 0 0 0 0
130 153 157 145 147 130 119 109 104 105 81 2 0 0 0 1 21 15 3 0 0 0 0 0 0 0 1 0 0 0 0 0 0 0 0 0 0 0 0 0 0 0 0 0 0 0 0
114 101 124 129 124 139 139 134 125 129 118 3 1 2 0 6 13 0 1 3 12 0 0 0 7 9 16 7 0 6 0 0 0 0 0 0 0 0 0 0 0 0 0 0 0 0 0
98 112 129 147 165 165 147 163 175 151 146 1 10 13 3 2 6 18 6 0 0 2 7 9 5 1 1 4 0 0 0 0 0 0 0 0 0 0 0 0 0 0 0 0 0 0 0
102 108 150 149 123 182 157 165 162 232 196 17 2 0 44 7 0 0 5 10 0 0 1 5 21 0 2 0 0 0 0 0 0 0 0 0 0 0 0 0 0 0 0 0 0 0 0
108 124 132 141 147 137 141 189 198 186 148 2 0 2 24 4 21 0 0 0 0 1 10 0 2 35 2 0 1 0 0 0 0 0 0 0 0 0 0 0 0 0 0 0 0 0 0
123 126 136 143 146 138 140 183 221 201 173 0 0 0 11 2 15 5 0 0 0 0 2 4 0 3 0 0 0 0 0 0 0 0 0 0 0 1 0 0 0 0 0 0 0 0 0
111 121 139 140 126 132 182 200 218 251 236 2 0 25 22 6 0 0 7 19 0 0 6 0 1 1 0 0 0 0 0 0 0 5 9 0 0 0 0 0 0 0 0 0 0 0 0
122 124 122 123 187 190 207 213 218 241 278 28 0 3 76 4 0 2 30 22 1 0 0 0 0 1 3 0 4 0 0 0 0 0 0 0 0 0 0 0 0 0 0 0 0 0 0
140 127 131 122 177 185 166 206 245 267 250 52 1 2 36 7 1 13 0 2 4 3 9 3 41 10 0 0 2 1 0 0 0 0 0 0 0 0 0 0 0 0 0 0 0 0 0
178 160 184 186 194 189 184 193 203 245 272 89 12 0 21 27 7 22 28 61 49 8 4 0 1 1 1 2 1 0 0 0 0 0 0 0 0 0 0 0 0 0 0 0 0 0 0
145 162 162 158 184 176 196 235 252 237 216 156 13 7 11 45 20 4 0 0 0 1 0 0 0 0 0 0 0 0 0 0 0 0 0 0 0 0 0 0 0 0 0 0 0 0 0

GFSGBSN_con_sbcape_129.txt.gz
CAPE
7 8 0 0 0 0 0 0 0 0 0 0 0 0 0 0 0 0 0 0 0 0 3 1 0 0 0 0 0 0 0 0 0 0 0 0 0 0 0 0 0 0 0 0 0 0 0
15 26 9 3 0 0 0 0 0 0 0 0 0 0 0 0 0 0 0 0 0 0 0 1 0 0 0 0 0 0 0 0 0 0 0 0 0 0 0 0 0 0 0 0 0 0 0
31 17 3 6 5 0 0 0 0 0 0 0 0 0 0 0 0 0 0 0 0 0 0 2 0 0 0 0 0 0 0 0 0 0 0 0 0 0 0 0 0 0 0 0 0 0 0
36 17 0 13 12 0 0 0 0 0 0 0 0 0 0 0 0 0 0 0 0 0 0 0 0 0 0 0 0 0 0 0 0 0 0 0 0 0 0 0 0 0 0 0 0 0 0
48 35 20 30 13 4 0 0 0 0 12 12 0 0 0 0 0 0 0 0 0 0 0 0 0 0 0 0 0 0 0 0 0 0 0 0 0 0 0 0 0 0 0 0 0 0 0
75 54 17 36 27 9 3 3 2 0 8 15 0 0 0 0 0 0 0 0 0 0 0 0 0 0 0 0 0 0 0 0 0 0 0 0 0 0 0 0 0 0 0 0 0 0 0
61 54 40 34 29 5 1 5 17 11 20 11 1 0 0 0 0 0 0 0 0 0 0 0 0 0 0 0 0 0 0 0 0 0 0 0 0 0 0 0 0 0 0 0 0 0 0
69 73 57 44 35 33 15 15 23 6 30 18 6 0 0 0 0 0 0 0 0 0 0 0 0 0 0 0 0 0 0 0 0 0 0 0 0 0 0 0 0 0 0 0 0 0 0
74 73 79 75 69 57 44 43 30 27 28 21 14 0 0 0 0 0 0 0 0 0 0 0 0 0 0 0 0 0 0 0 0 0 0 0 0 0 0 0 0 0 0 0 0 0 0
79 63 77 68 71 63 64 61 58 31 21 24 18 1 0 0 0 0 0 0 0 0 0 0 0 0 0 0 0 0 0 0 0 0 0 0 0 0 0 0 0 0 0 0 0 0 0
81 77 70 80 75 58 53 54 59 58 56 36 19 4 0 0 0 0 0 0 0 0 0 0 0 0 0 0 0 0 0 0 0 0 0 0 0 0 0 0 0 0 0 0 0 0 0
108 93 82 76 76 65 64 61 48 54 65 64 47 22 0 0 0 0 0 0 0 0 0 0 0 0 0 0 0 0 0 0 0 0 0 0 0 0 0 0 0 0 0 0 0 0 0
101 92 96 82 71 69 77 84 61 44 54 61 56 53 2 0 0 0 0 0 0 0 0 0 0 0 0 0 0 0 0 0 0 0 0 0 0 0 0 0 0 0 0 3 0 0 0
119 99 110 95 82 79 65 73 61 57 66 69 65 48 0 0 0 0 1 0 0 0 0 0 0 0 0 0 0 0 0 0 0 0 0 0 0 0 0 0 0 0 0 4 0 0 0
104 151 134 106 100 95 87 71 73 66 77 65 15 0 12 0 0 0 29 0 0 0 0 0 0 0 0 0 0 0 0 0 0 0 2 0 0 0 0 0 0 0 0 0 30 0 4
91 101 135 124 103 114 94 77 78 73 71 30 0 7 2 0 0 0 29 0 0 0 0 0 0 0 0 0 0 0 0 0 0 0 0 0 11 0 0 0 0 0 0 25 10 38 1
25 92 78 138 122 111 112 84 85 88 85 2 0 5 0 0 0 2 8 0 0 0 0 0 0 0 0 0 0 0 0 0 0 0 0 0 2 0 0 0 0 0 0 0 12 0 57
101 94 129 132 143 138 122 119 85 74 97 8 0 2 0 0 0 0 1 0 0 0 0 0 0 0 0 0 0 0 0 9 0 0 0 1 5 0 0 0 0 0 0 3 83 14 4
68 80 98 95 73 168 153 134 122 69 88 0 0 0 0 37 3 0 0 0 0 0 0 0 0 0 0 0 0 0 0 0 0 0 0 1 43 16 5 0 0 0 1 0 0 5 10
79 85 73 40 56 138 169 93 101 129 127 4 1 0 0 12 0 0 0 0 0 0 0 0 0 0 0 0 0 0 0 0 0 5 104 32 2 29 34 9 0 4 0 0 2 25 12
76 95 61 24 8 19 159 166 93 60 84 0 1 2 0 0 1 3 0 0 0 0 2 0 0 0 0 17 17 3 0 0 0 0 4 54 9 0 2 1 0 0 0 0 0 0 9
92 97 64 46 19 23 74 167 161 146 122 5 0 5 11 0 1 5 0 1 1 6 5 15 1 0 0 0 0 0 0 0 0 0 0 0 8 0 0 0 0 0 0 0 0 0 0
88 77 52 45 45 12 30 162 178 143 105 0 2 0 0 6 0 3 4 1 0 3 2 1 3 6 10 4 1 23 12 9 2 27 23 13 7 9 3 0 0 1 0 0 0 0 0
138 141 141 77 9 42 35 60 76 129 45 4 0 0 0 0 1 0 0 0 0 0 2 2 4 3 0 15 37 28 29 28 28 6 15 19 3 38 12 0 21 0 0 0 0 0 0
168 157 150 129 90 95 71 75 51 34 27 0 0 0 0 0 0 0 0 0 0 2 0 7 0 0 22 57 30 13 2 6 0 0 0 0 28 42 53 2 0 0 0 0 0 0 0
176 182 169 150 126 104 124 100 62 64 42 9 0 0 0 0 0 0 0 0 0 0 0 0 0 0 0 34 35 24 8 25 15 0 0 4 19 44 10 1 0 0 0 0 0 0 0
146 144 152 153 150 144 90 88 76 47 60 6 9 1 6 0 0 0 0 0 0 6 1 0 2 5 12 27 40 15 7 5 6 0 18 27 7 3 24 0 0 0 0 0 0 0 0
100 92 104 125 184 156 138 77 90 78 44 23 2 1 4 0 0 0 5 0 0 0 5 2 4 0 7 14 19 27 30 5 21 0 3 81 6 3 2 2 0 0 0 0 0 0 0
133 94 53 110 130 193 137 104 86 44 57 23 5 0 0 10 0 0 0 0 0 5 16 9 33 12 6 6 7 2 2 0 0 3 0 2 8 0 0 0 0 0 0 0 0 0 0

GFSGBSN_con_sbcape_132.txt.gz
CAPE
2 3 3 0 0 0 0 0 0 0 0 0 0 0 0 0 0 0 0 0 0 0 0 0 0 0 0 0 0 0 0 0 0 0 0 0 0 0 0 0 0 0 0 0 0 0 0
10 13 5 2 0 0 0 0 0 0 0 0 0 0 0 0 0 0 0 0 0 0 0 0 0 0 0 0 0 0 0 0 0 0 0 0 0 0 0 0 0 0 0 0 0 0 0
25 46 13 14 3 0 0 0 0 0 0 0 0 0 0 0 0 0 0 0 0 0 0 0 0 0 0 0 0 0 0 0 0 0 0 0 0 0 0 0 0 0 0 0 0 0 0
28 40 15 30 20 0 0 0 0 0 0 0 0 0 0 0 0 0 0 0 0 0 0 0 0 0 0 0 0 0 0 0 0 0 0 0 0 0 0 0 0 0 0 0 0 0 0
37 43 21 40 48 12 0 0 0 0 0 2 0 0 0 0 0 0 0 0 0 0 0 0 0 0 0 0 0 0 0 0 0 0 0 0 0 0 0 0 0 0 0 0 0 0 0
52 68 59 37 53 16 1 0 0 0 1 12 0 0 0 0 0 0 0 0 0 0 0 0 0 0 0 0 0 0 0 0 0 0 0 0 0 0 0 0 0 0 0 0 0 0 0
48 65 71 71 56 32 1 0 0 0 13 4 0 0 0 0 0 0 0 0 0 0 0 0 0 0 0 0 0 0 0 0 0 0 0 0 0 0 0 0 0 0 0 0 0 0 0
87 86 71 72 63 34 15 13 23 6 17 14 2 0 0 0 0 0 0 0 0 0 0 0 0 0 0 0 0 0 0 0 0 0 0 0 0 0 0 0 0 0 0 0 0 0 0
82 95 92 69 51 56 33 36 46 17 27 10 0 0 0 0 0 0 0 0 0 1 0 0 0 0 0 0 0 0 0 0 0 0 0 0 0 0 0 0 0 0 0 0 0 0 0
60 69 94 100 85 76 70 56 44 42 36 16 2 0 0 0 0 0 0 0 0 0 0 0 0 0 0 0 0 0 0 0 0 0 0 0 0 0 0 0 0 0 0 0 0 0 0
109 67 63 67 78 52 55 54 56 51 47 34 21 2 0 0 0 0 3 1 0 0 0 0 0 0 0 0 0 0 0 0 0 0 0 0 0 0 0 0 0 0 0 0 0 1 1
112 102 93 70 69 62 49 47 50 45 48 28 13 9 0 0 0 1 0 0 1 0 0 0 0 0 0 0 0 0 0 0 0 0 0 0 0 0 0 0 0 0 0 0 1 0 0
122 128 118 92 77 72 78 63 56 35 43 37 26 10 0 0 0 0 0 18 0 0 0 0 0 0 0 0 0 0 0 0 0 0 0 0 0 0 0 0 0 0 1 0 1 13 0
132 137 145 116 111 86 72 64 63 47 54 59 48 30 1 0 0 0 26 0 0 0 0 0 0 0 0 0 0 0 0 0 0 0 0 0 0 0 0 0 0 0 4 20 0 0 6
141 140 131 111 107 98 91 77 71 63 51 59 35 62 33 10 0 0 115 5 0 0 0 0 0 0 0 0 0 6 18 15 7 20 16 19 1 0 0 0 4 46 57 37 59 33 40
194 136 144 115 99 75 32 66 82 78 63 39 64 41 7 6 22 0 90 0 0 0 0 0 0 0 0 0 0 0 6 7 13 19 60 41 0 0 0 1 0 39 77 67 86 31 40
198 122 77 81 56 57 66 76 78 97 85 35 39 43 18 28 41 21 26 0 0 0 0 0 0 0 0 0 0 0 0 38 86 6 7 23 39 3 28 21 7 79 81 58 92 76 76
27 140 56 21 36 106 100 118 109 96 49 19 7 22 5 84 45 26 8 0 0 0 0 0 0 0 0 0 0 0 0 53 20 0 0 0 0 3 11 61 39 49 48 105 167 37 76
37 46 73 36 9 54 27 71 128 102 18 5 2 14 15 52 44 13 0 0 0 0 0 0 0 0 0 0 0 0 0 0 2 4 13 19 0 2 0 48 110 79 58 57 16 11 39
35 66 68 63 95 71 14 59 41 38 66 3 4 36 8 26 32 15 0 0 0 0 0 0 0 0 0 0 0 0 1 37 21 12 37 49 75 39 12 6 77 51 51 53 79 105 50
35 59 72 82 80 70 67 15 103 70 75 0 12 52 3 10 34 44 34 0 0 2 4 1 1 2 5 13 10 9 9 13 9 18 7 26 9 32 27 22 37 50 36 30 58 58 154
55 63 86 87 82 89 53 61 43 36 77 5 1 37 9 31 18 25 35 7 2 3 7 6 2 6 7 6 4 14 25 31 19 10 23 60 5 27 12 15 53 41 1 0 2 22 136
77 61 85 102 88 54 26 5 16 106 28 1 9 15 46 25 25 20 10 16 14 23 21 15 15 32 31 24 45 58 68 52 37 51 61 46 52 31 15 40 69 50 0 20 38 50 99
93 97 85 84 77 56 56 90 71 47 53 2 3 17 86 71 77 17 10 20 11 7 24 29 40 46 37 44 26 30 26 32 22 29 55 46 47 69 80 51 139 0 0 0 40 105 148
105 105 129 87 60 51 56 72 60 46 167 0 6 59 71 105 21 37 41 23 34 31 24 22 8 19 25 18 26 24 18 10 2 0 2 18 68 99 72 39 24 0 130 0 0 0 0
148 150 112 124 124 104 89 43 37 14 34 2 7 22 47 155 32 21 34 27 43 38 44 22 14 20 50 54 62 25 8 0 0 37 42 7 24 126 21 35 35 118 0 0 0 0 0
139 173 185 175 169 154 116 138 18 50 37 3 4 18 20 24 0 19 36 47 26 24 10 3 32 58 88 58 64 27 14 3 9 10 34 80 80 65 195 113 14 13 0 0 0 43 0
162 199 197 226 215 198 192 134 67 94 49 4 3 5 13 32 14 1 3 2 6 4 5 18 33 64 81 97 69 51 33 23 75 11 13 49 104 211 228 250 265 0 0 0 0 0 0
158 177 150 157 184 200 178 164 112 64 27 13 8 12 23 6 15 1 5 3 5 3 13 17 1 24 71 66 11 63 89 141 49 58 62 215 377 432 199 217 0 0 0 0 0 0 0